Simultaneous Nadir Overpasses (SNOs) Predictions

Prediction of SNOs between LANDSAT-8 and METOP-A Satellite Orbit:

Table of predicted SNOs for the next 14.0 days since TLE Epoch: 2/26/2016
Index Date (LANDSAT-8) Time (LANDSAT-8) Lat,Lon (LANDSAT-8) SZA (LANDSAT-8 ) Date (METOP-A) Time (METOP-A) Lat,Lon (METOP-A) SZA (METOP-A ) Distance(km) Time Diff (sec)
1 02/28/2016 14:25:24 81.11, 3.01 90.79 02/28/2016 14:24:28 81.11, 3.14 90.79 2.42 56
2 02/28/2016 15:14:50 -81.13, 170.96 89.18 02/28/2016 15:15:08 -81.12, 170.80 89.19 2.70 18
3 03/02/2016 09:59:39 81.11, 69.44 89.74 03/02/2016 09:58:53 81.11, 69.45 89.72 0.18 46
4 03/02/2016 10:49:05 -81.13,-122.58 90.23 03/02/2016 10:49:32 -81.13,-122.47 90.21 2.04 27
5 03/05/2016 05:33:54 81.10, 135.82 88.66 03/05/2016 05:33:18 81.10, 135.73 88.64 1.57 36
6 03/05/2016 06:23:20 -81.13, -56.19 91.30 03/05/2016 06:23:57 -81.13, -56.15 91.28 0.84 37
7 03/08/2016 01:08:07 81.12,-157.51 87.62 03/08/2016 01:07:41 81.11,-157.65 87.59 2.66 26
8 03/08/2016 01:57:33 -81.14, 10.51 92.34 03/08/2016 01:58:20 -81.14, 10.52 92.32 0.47 47
9 03/10/2016 20:42:22 81.11, -91.25 86.52 03/10/2016 20:42:06 81.10, -91.43 86.49 3.17 16




NCC Satellite Simultaneous Nadir Overpasses (SNOs) Prediction Service
